Погода в Кичике-Куштепе

Узбекистан     40°30′42″N   71°03′27″E
темп.,
°C
ветер,
м/с
пор.,
м/с
влажн.,
%
обл.,
%
осадки,
мм/ч
давл.,
гПа
погр.,
м
3 марта, ср
ср323:00+11всв1128100 0.0 102422
02:00+10ссз1237100 0.0 102341
05:00+9юз2369100 0.3 1023172
08:00+9юз2570100 0.5 1023428
11:00+10св1162100 0.7 1022461
14:00+11с2262100 0.1 1020613
17:00+11св3464100 0.1 1021461
20:00+8св3675100 0.0 1023347
4 марта, чт
чт423:00+8св247999 0.0 1024247
02:00+7в258499 0.0 1023242
05:00+6вюв238791 0.0 1023103
08:00+7в128233 0.0 1023102
11:00+11всв345950 0.0 1020639
14:00+14всв2341100 0.0 10171103
17:00+14юв1140100 0.0 10191025
20:00+12ююз2449100 0.1 1021281
5 марта, пт
пт523:00+11ююв2560100 0.1 1022257
02:00+10зюз61076100 0.9 1023783
05:00+9зюз11166698 0.9 1025755
08:00+8зюз101755100 0.0 1027669
11:00+11зюз9123867 0.0 1027800
14:00+13з563176 0.0 1025869
17:00+13ссз222838 0.0 1024648
20:00+11св37390 0.0 1027338
6 марта, сб
сб623:00+9всв47530 0.0 1026364
02:00+8в365958 0.0 1023253
05:00+7вюв245971 0.0 1020165
08:00+7в3554100 0.0 1016201
11:00+11всв353499 0.0 1011605
14:00+14зсз1124100 0.0 1009652
17:00+15з4523100 0.0 1010820
20:00+12зюз4834100 0.0 1012325
7 марта, вс
вс723:00+10з4749100 0.0 1015297
02:00+10зюз3755100 0.0 1014292
05:00+8зюз61166100 0.0 1015406
08:00+8зюз71273100 0.0 1017496
11:00+10зюз81153100 0.0 1017626
14:00+12зюз7847100 0.0 1016821
17:00+12з464899 0.0 1016643
20:00+10зюз365795 0.0 1018270